Regional Weather Roundup
Issued by NWS

Home | Current Version | Previous Version | Text Only | Print | Product List | Glossary Off
Versions: 1 2 3 4 5 6 7 8 9 10 11 12 13 14 15 16 17 18 19 20 21 22 23 24 25 26 27 28

000
ASUS45 KTFX 171010
RWRMT
MONTANA REGIONAL WEATHER ROUNDUP
NATIONAL WEATHER SERVICE GREAT FALLS MT
400 AM MDT TUE OCT 17 2017

NOTE: "FAIR" INDICATES FEW OR NO CLOUDS BELOW 12000 FEET WITH NO
SIGNIFICANT WEATHER AND/OR OBSTRUCTIONS TO VISIBILITY.

MTZ001>007-043-171100-
WEST OF THE DIVIDE

CITY           SKY/WX    TMP DP  RH WIND       PRES   REMARKS
KALISPELL      MOCLDY    34  30  85 SW5       30.02F
MISSOULA       CLEAR     33  27  78 N3        30.12F
BUTTE          CLEAR     30  23  75 CALM      30.21F
MULLAN PASS    CLEAR     43  23  45 VRB6      30.13F
ANACONDA         N/A     48  21  34 S5        30.15F
DEER LODGE       N/A     37  25  60 W6        30.16F
EUREKA           N/A     52  28  40 MISG      29.99S
HAMILTON         N/A     48  25  40 S17       30.13F
LIBBY            N/A     34  32  93 E3        30.01F
$$

MTZ008-052>055-171100-
SOUTHWEST MONTANA

CITY           SKY/WX    TMP DP  RH WIND       PRES   REMARKS
BOZEMAN        CLOUDY    32  25  75 SE7       30.17F WCI  26
DILLON         CLEAR     40  21  46 SW18      30.22F
W YELLOWSTONE  CLOUDY    21  18  86 CALM      30.34F
ENNIS          CLOUDY    39  19  45 S14       30.28F WCI  31
THREE FORKS      N/A     34  23  64 N1        30.14S
$$

MTZ009-010-012-014-046-048-049-054-171100-
EAST SLOPES AND CENTRAL MONTANA

CITY           SKY/WX    TMP DP  RH WIND       PRES   REMARKS
CUT BANK       MOCLDY    55  21  26 SW29G36   29.89F
GREAT FALLS    CLOUDY    55  22  27 SW22      29.96F
MALMSTROM AFB  CLOUDY    56  22  27 SW21      29.97F
HELENA         CLEAR     41  28  60 CALM      30.09F
CHOTEAU          N/A     59  19  21 SW20G26   29.95F
$$

MTZ011-013-016-021-045-047-050-051-171100-
NORTH CENTRAL MONTANA

CITY           SKY/WX    TMP DP  RH WIND       PRES   REMARKS
HAVRE          CLOUDY    55  27  34 SW17G26   29.87R
LEWISTOWN      CLEAR     54  20  26 W18       30.01F
N BAR RANCH      N/A     48  14  25 SE7       30.01F
CHINOOK          N/A     63  23  22 SW25G33   29.82F
$$

MTZ017>020-022>027-061-062-171100-
NORTHEAST MONTANA

CITY           SKY/WX    TMP DP  RH WIND       PRES   REMARKS
GLASGOW        CLOUDY    54  26  34 SW8       29.85F
JORDAN           N/A     49  27  42 W8        29.91F
SIDNEY         CLEAR     39  31  72 S12       29.90S WCI  32
WOLF POINT     CLOUDY    38  29  70 CALM      29.87S
MALTA          CLEAR     59  27  29 W18G25    29.82R
PLENTYWOOD       N/A     48  27  43 CALM      29.82F
POPLAR           N/A     46  28  49 SW3       29.87S
$$

MTZ028>42-056>058-171100-
SOUTHCENTRAL AND SOUTHEAST MONTANA

CITY           SKY/WX    TMP DP  RH WIND       PRES   REMARKS
BAKER          CLEAR     49  27  42 SW9       29.99F
BILLINGS       CLEAR     51  23  33 SW17      30.05F
LIVINGSTON     CLEAR     54  19  25 SW35G45   30.13F
MILES CITY     CLEAR     40  29  64 CALM      29.98F
BIG TIMBER     CLEAR     54  16  22 W29G37    30.10F
FORSYTH          N/A     55  23  28 SW6       29.98F
LAUREL           N/A     43  23  45 SW10      30.07F
$$

REGIONAL REPORTS...DAKOTAS

CITY           SKY/WX    TMP DP  RH WIND       PRES   REMARKS
WILLISTON      CLOUDY    43  32  65 SW9       29.87S
MINOT          CLOUDY    53  33  46 SW16      29.83F
DICKINSON      CLEAR     48  28  46 SW6       29.93F
BEACH            N/A     48  27  43 SW15      29.98F
CROSBY           N/A     43  32  65 SW15      29.81S
TIOGA            N/A     46  30  53 SW15      29.86S
WATFORD CITY     N/A     39  32  75 SW6       29.87F
BISMARCK       CLEAR     34  31  88 CALM      29.96S
GRAND FORKS    CLOUDY    36  32  85 S5        29.89R
FARGO          CLOUDY    39  34  82 S8        29.93S
BUFFALO SD       N/A     45  26  47 W10       29.95F
RAPID CITY     CLEAR     40  26  57 W9        30.07F
$$

REGIONAL REPORTS...WYOMING/IDAHO/WASHINGTON

CITY           SKY/WX    TMP DP  RH WIND       PRES   REMARKS
GILLETTE       CLOUDY    47  23  38 VRB5      30.10F
SHERIDAN       CLOUDY    39  25  57 SE3       30.08F
BUFFALO WY     CLOUDY    51  12  21 CALM      30.13F
CODY           CLEAR     56  16  20 W14G23    30.18F
YELLOWSTONE LA   N/A     22  19  89 W5        30.38F
IDAHO FALLS    CLOUDY    28  25  88 NW5       30.32S
SALMON         CLOUDY    30  26  85 SE3       30.29F
BOISE          CLEAR     44  29  55 SE5       30.22F
SPOKANE        CLEAR     43  33  68 S10       30.02F
$$

REGIONAL REPORTS...ALBERTA

CITY           SKY/WX    TMP DP  RH WIND       PRES   REMARKS
EDMONTON       CLEAR     41  34  75 CALM      29.52F
CALGARY        PTCLDY    46  34  61 S2        29.64F
LETHBRIDGE     CLEAR     54  30  40 SW20G25   29.79F
MEDICINE HAT   CLEAR     52  32  46 S9        29.70F
$$

REGIONAL REPORTS...SASKATCHEWAN

CITY           SKY/WX    TMP DP  RH WIND       PRES   REMARKS
SWIFT CURRENT  CLEAR     46  27  46 SW17G25   29.71S
REGINA         CLEAR     43  28  56 S3        29.70F
SASKATOON      CLEAR     39  32  75 SW8       29.60S
$$




USA.gov is the U.S. government's official web portal to all federal, state and local government web resources and services.